2024-166A

Last updated on Fri Oct 04 2024 00:02:04 GMT+0000 (Coordinated Universal Time)

1 61179U 24166A 24277.57280677 .00077118 00000+0 41434-3 0 9999 2 61179 96.7663 172.6776 0014344 175.8504 184.2887 15.79878821 2573
UTC large
Height (km)
Speed (km/s)
/
Latitude / Longitude
Inclination (degrees)
Orbital Period (minutes)
Azimuth
Elevation
Range (km)
Doppler Factor

Next 0 passes for location: London (51.5072 / 0.1276)

Sorry there are no passes over London.